Regional Weather Roundup
Issued by NWS Little Rock, AR

Home | Current Version | Previous Version | Text Only | Print | Product List | Glossary On
Versions: 1 2 3 4 5 6 7 8 9 10 11 12 13 14 15 16 17 18 19 20 21 22 23 24 25 26 27 28 29 30 31 32 33 34 35 36 37 38 39 40 41 42 43 44 45 46 47 48 49 50
000
ASUS44 KLZK 012005
RWRLZK

WEATHER ROUNDUP FOR ARKANSAS
NATIONAL WEATHER SERVICE LITTLE ROCK AR
200 PM CST WED MAR 01 2017

NOTE: "FAIR" INDICATES FEW OR NO CLOUDS BELOW 12,000 FEET WITH NO
SIGNIFICANT WEATHER AND/OR OBSTRUCTIONS TO VISIBILITY.

ARZ001-003-010-029-012100-
NORTHWEST ARKANSAS

CITY           SKY/WX    TMP DP  RH WIND       PRES   REMARKS
FAYETTEVILLE   SUNNY     55  17  22 NW21G30   30.16R
FORT SMITH     SUNNY     61   8  12 N20G28    30.15S
HARRISON       SUNNY     54  18  24 NW16G29   30.10R
BENTONVILLE    SUNNY     54  21  28 NW17G24   30.16S
ROGERS         SUNNY     53  19  26 NW20G29   30.15S
SILOAM SPGS    SUNNY     55  19  24 N21G26    30.16S
HIGHFILL       SUNNY     55  21  26 NW17G26   30.15S
SPRINGDALE     SUNNY     54  21  28 NW17G35   30.17S
$$

ARZ004-005-016-012100-
NORTH CENTRAL ARKANSAS

CITY           SKY/WX    TMP DP  RH WIND       PRES   REMARKS
BATESVILLE       N/A    N/A N/A N/A MISG        N/A
FLIPPIN        SUNNY     57  21  24 NW17G30   30.07R
MTN HOME       LGT RAIN  56  22  26 N10G25    30.07R
$$

ARZ040-041-012100-
WEST CENTRAL ARKANSAS

CITY           SKY/WX    TMP DP  RH WIND       PRES   REMARKS
MENA           SUNNY     63  18  17 NW16G23   30.14S
MOUNT IDA      SUNNY     62  18  18 NW10G20   30.10S
$$

ARZ009-017-025-026-028-012100-
NORTHEAST ARKANSAS

CITY           SKY/WX    TMP DP  RH WIND       PRES   REMARKS
CORNING        FAIR      63  28  27 NW25G35   30.00R
JONESBORO      SUNNY     61  31  32 NW18G31   30.00R
WALNUT RIDGE   SUNNY     63  28  27 NW22G31   30.01R
BLYTHEVILLE    SUNNY     64  42  44 NW21G30   29.98R
$$

ARZ022-023-033-042-044-012100-
CENTRAL ARKANSAS

CITY           SKY/WX    TMP DP  RH WIND       PRES   REMARKS
LITTLE ROCK    MOSUNNY   64  31  28 NW18G29   30.07S
N LITTLE ROCK    N/A     62  32  33 NW10G23   30.06S
JACKSONVILLE   SUNNY     64  36  35 W15G26    30.05S
SEARCY         SUNNY     64  32  30 NW10G20   30.05S
HOT SPRINGS    SUNNY     64  23  21 NW13G23   30.10R
RUSSELLVILLE   SUNNY     62  16  16 NW17G33   30.09S
CLINTON        FAIR      63  19  19 NW16G28   30.07R
$$

ARZ036-012100-
EAST ARKANSAS

CITY           SKY/WX    TMP DP  RH WIND       PRES   REMARKS
WEST MEMPHIS   SUNNY     62  41  46 NW15G23   30.00R
$$

ARZ050-053-066-070-073-012100-
SOUTHWEST ARKANSAS

CITY           SKY/WX    TMP DP  RH WIND       PRES   REMARKS
ARKADELPHIA    FAIR      65  31  28 NW12      30.10S
CAMDEN         MOSUNNY   72  27  18 N10G20    30.08S
TEXARKANA      SUNNY     66  30  26 NW13G24   30.13S
EL DORADO      PTSUNNY   68  36  30 NW17G25   30.07S
DE QUEEN       SUNNY     65  22  19 N13G22    30.13F
$$

ARZ056-057-069-012100-
SOUTHEAST ARKANSAS

CITY           SKY/WX    TMP DP  RH WIND       PRES   REMARKS
PINE BLUFF     SUNNY     68  31  25 NW20G29   30.05S
STUTTGART      SUNNY     66  36  32 NW23G31   30.04F
MONTICELLO     MOSUNNY   71  40  32 W16G23    30.02S

$$





USA.gov is the U.S. government's official web portal to all federal, state and local government web resources and services.